| time (UTC) | temp C | wind direction | speed KPH | gust KPH | rain 1hr cm | rain 24hr cm | rain mn cm | humidity % | barometer mb |
| 20260505173603 | 11 | 86 | 3.2 | 11.3 | 0.00 | 0.00 | 0.00 | 75 | 1011.6 |
| 20260505172703 | 11 | 94 | 3.2 | 9.7 | 0.00 | 0.00 | 0.00 | 74 | 1011.6 |
| 20260505172019 | 11 | 128 | 3.2 | 6.4 | 0.00 | 0.00 | 0.00 | 71 | 1011.6 |
| 20260505170903 | 11 | 91 | 1.6 | 8.0 | 0.00 | 0.00 | 0.00 | 68 | 1011.5 |
| 20260505170003 | 11 | 96 | 1.6 | 6.4 | 0.00 | 0.00 | 0.00 | 64 | 1011.6 |
| 20260505165617 | 11 | 100 | 1.6 | 8.0 | 0.00 | 0.00 | 0.00 | 62 | 1011.5 |
| 20260505164717 | 11 | 94 | 4.8 | 9.7 | 0.00 | 0.00 | 0.00 | 61 | 1011.5 |
| 20260505163603 | 12 | 78 | 3.2 | 9.7 | 0.00 | 0.00 | 0.00 | 59 | 1011.5 |
| 20260505162915 | 12 | 85 | 3.2 | 9.7 | 0.00 | 0.00 | 0.00 | 58 | 1011.5 |
| 20260505161803 | 12 | 155 | 1.6 | 6.4 | 0.00 | 0.00 | 0.00 | 52 | 1011.4 |
| 20260505160903 | 12 | 133 | 4.8 | 11.3 | 0.00 | 0.00 | 0.00 | 51 | 1011.4 |
| 20260505152703 | 13 | 172 | 8.0 | 19.3 | 0.00 | 0.00 | 0.00 | 55 | 1011.2 |
| 20260505151803 | 13 | 160 | 8.0 | 14.5 | 0.00 | 0.00 | 0.00 | 58 | 1011.1 |
| 20260505150903 | 13 | 172 | 4.8 | 14.5 | 0.00 | 0.00 | 0.00 | 59 | 1011.2 |
| 20260505130216 | 14 | 295 | 6.4 | 14.5 | 0.00 | 0.00 | 0.00 | 42 | 1011.6 |
| 20260505124503 | 14 | 296 | 1.6 | 9.7 | 0.00 | 0.00 | 0.00 | 43 | 1011.6 |
| 20260505123819 | 14 | 268 | 1.6 | 8.0 | 0.00 | 0.00 | 0.00 | 43 | 1011.5 |
| 20260505122703 | 15 | 200 | 1.6 | 8.0 | 0.00 | 0.00 | 0.00 | 45 | 1011.5 |
| 20260505122017 | 15 | 162 | 1.6 | 8.0 | 0.00 | 0.00 | 0.00 | 46 | 1011.6 |
| 20260505120903 | 14 | 154 | 1.6 | 4.8 | 0.00 | 0.00 | 0.00 | 43 | 1011.6 |
| 20260505120216 | 13 | 277 | 1.6 | 8.0 | 0.00 | 0.00 | 0.00 | 41 | 1011.6 |
| 20260505115615 | 13 | 262 | 1.6 | 6.4 | 0.00 | 0.00 | 0.00 | 40 | 1011.6 |
| 20260505114503 | 13 | 287 | 1.6 | 6.4 | 0.00 | 0.00 | 0.00 | 44 | 1011.6 |
| 20260505113603 | 13 | 330 | 1.6 | 11.3 | 0.00 | 0.00 | 0.00 | 44 | 1011.7 |
| 20260505112917 | 12 | 341 | 4.8 | 12.9 | 0.00 | 0.00 | 0.00 | 42 | 1011.8 |
| 20260505111803 | 12 | 326 | 3.2 | 9.7 | 0.00 | 0.00 | 0.00 | 43 | 1011.8 |
| 20260505111116 | 12 | 326 | 4.8 | 14.5 | 0.00 | 0.00 | 0.00 | 45 | 1011.8 |
| 20260505110215 | 12 | 323 | 3.2 | 9.7 | 0.00 | 0.00 | 0.00 | 46 | 1011.9 |
| 20260505101803 | 12 | 327 | 3.2 | 8.0 | 0.00 | 0.00 | 0.00 | 50 | 1012.0 |
| 20260505100903 | 12 | 324 | 4.8 | 12.9 | 0.00 | 0.00 | 0.00 | 47 | 1012.1 |
| 20260505100003 | 12 | 305 | 3.2 | 11.3 | 0.00 | 0.00 | 0.00 | 58 | 1012.0 |
| 20260505095403 | 12 | 10 | 1.6 | 8.0 | 0.00 | 0.00 | 0.00 | 56 | 1012.0 |
| 20260505094503 | 11 | 323 | 3.2 | 11.3 | 0.00 | 0.00 | 0.00 | 58 | 1012.1 |
| 20260505093603 | 11 | 321 | 1.6 | 9.7 | 0.00 | 0.00 | 0.00 | 60 | 1012.1 |
| 20260505092703 | 11 | 330 | 4.8 | 11.3 | 0.00 | 0.00 | 0.00 | 62 | 1012.2 |
| 20260505091803 | 11 | 312 | 1.6 | 11.3 | 0.00 | 0.00 | 0.00 | 66 | 1012.2 |
| 20260505090903 | 11 | 310 | 4.8 | 11.3 | 0.00 | 0.00 | 0.00 | 66 | 1012.2 |
| 20260505090003 | 11 | 327 | 4.8 | 12.9 | 0.00 | 0.00 | 0.00 | 66 | 1012.3 |
| 20260505085403 | 11 | 310 | 3.2 | 11.3 | 0.00 | 0.00 | 0.00 | 66 | 1012.2 |
| 20260505084503 | 10 | 284 | 1.6 | 9.7 | 0.00 | 0.00 | 0.00 | 70 | 1012.2 |
| 20260505083817 | 10 | 296 | 4.8 | 12.9 | 0.00 | 0.00 | 0.00 | 69 | 1012.2 |
| 20260505082703 | 10 | 303 | 6.4 | 12.9 | 0.00 | 0.00 | 0.00 | 70 | 1012.1 |
| 20260505082016 | 10 | 296 | 4.8 | 12.9 | 0.00 | 0.00 | 0.00 | 72 | 1012.1 |
| 20260505081119 | 10 | 296 | 4.8 | 11.3 | 0.00 | 0.00 | 0.00 | 73 | 1012.1 |
| 20260505080003 | 10 | 302 | 6.4 | 17.7 | 0.00 | 0.00 | 0.00 | 73 | 1012.1 |
| 20260505075618 | 10 | 290 | 8.0 | 19.3 | 0.00 | 0.00 | 0.00 | 72 | 1012.1 |
| 20260505074717 | 10 | 297 | 6.4 | 16.1 | 0.00 | 0.00 | 0.00 | 73 | 1012.1 |
| 20260505073817 | 9 | 285 | 8.0 | 16.1 | 0.00 | 0.00 | 0.00 | 73 | 1012.0 |
| 20260505072703 | 9 | 309 | 4.8 | 16.1 | 0.00 | 0.00 | 0.00 | 75 | 1012.1 |
| 20260505071803 | 8 | 319 | 8.0 | 19.3 | 0.00 | 0.00 | 0.00 | 76 | 1012.1 |
| 20260505070903 | 8 | 291 | 6.4 | 17.7 | 0.00 | 0.00 | 0.00 | 78 | 1012.0 |
| 20260505070003 | 8 | 299 | 8.0 | 17.7 | 0.00 | 0.00 | 0.00 | 79 | 1012.0 |
| 20260505065403 | 8 | 305 | 6.4 | 16.1 | 0.00 | 0.00 | 0.00 | 81 | 1012.0 |
| 20260505064503 | 8 | 287 | 6.4 | 12.9 | 0.00 | 0.00 | 0.00 | 84 | 1012.1 |
| 20260505063816 | 7 | 288 | 4.8 | 12.9 | 0.00 | 0.00 | 0.00 | 84 | 1012.2 |
| 20260505062703 | 7 | 290 | 4.8 | 9.7 | 0.00 | 0.00 | 0.00 | 86 | 1012.2 |
| 20260505061803 | 7 | 282 | 3.2 | 9.7 | 0.00 | 0.00 | 0.00 | 88 | 1012.1 |
| 20260505060903 | 7 | 276 | 1.6 | 6.4 | 0.00 | 0.00 | 0.00 | 88 | 1012.2 |
| 20260505060003 | 6 | 295 | 1.6 | 6.4 | 0.00 | 0.00 | 0.00 | 89 | 1012.1 |
| 20260505055403 | 6 | 282 | 3.2 | 6.4 | 0.00 | 0.00 | 0.00 | 89 | 1012.2 |
| 20260505054503 | 6 | 0 | 0.0 | 4.8 | 0.00 | 0.00 | 0.00 | 90 | 1012.2 |
| 20260505053816 | 6 | 301 | 1.6 | 6.4 | 0.00 | 0.00 | 0.00 | 90 | 1012.2 |
| 20260505052703 | 6 | 0 | 0.0 | 1.6 | 0.00 | 0.00 | 0.00 | 90 | 1012.2 |
| 20260505051803 | 6 | 0 | 0.0 | 3.2 | 0.00 | 0.00 | 0.00 | 91 | 1012.1 |
| 20260505050903 | 6 | 0 | 0.0 | 0.0 | 0.00 | 0.00 | 0.00 | 91 | 1012.1 |
| 20260505041118 | 4 | 0 | 0.0 | 3.2 | 0.00 | 0.00 | 0.00 | 91 | 1012.0 |
| 20260505040217 | 4 | 0 | 0.0 | 3.2 | 0.00 | 0.00 | 0.00 | 91 | 1012.0 |
| 20260505035403 | 4 | 0 | 0.0 | 1.6 | 0.00 | 0.00 | 0.00 | 91 | 1011.9 |
| 20260505034716 | 4 | 0 | 0.0 | 1.6 | 0.00 | 0.00 | 0.00 | 91 | 1011.9 |
| 20260505033603 | 3 | 0 | 0.0 | 3.2 | 0.00 | 0.00 | 0.00 | 91 | 1011.9 |
| 20260505032703 | 3 | 0 | 0.0 | 3.2 | 0.00 | 0.00 | 0.00 | 91 | 1012.0 |
| 20260505031803 | 3 | 0 | 0.0 | 0.0 | 0.00 | 0.00 | 0.00 | 91 | 1012.0 |
| 20260505030903 | 3 | 0 | 0.0 | 1.6 | 0.00 | 0.00 | 0.00 | 90 | 1012.0 |
| 20260505030003 | 4 | 0 | 0.0 | 8.0 | 0.00 | 0.00 | 0.00 | 90 | 1012.0 |
| 20260505025403 | 4 | 292 | 1.6 | 8.0 | 0.00 | 0.00 | 0.00 | 90 | 1012.0 |
| 20260505024503 | 4 | 0 | 0.0 | 4.8 | 0.00 | 0.00 | 0.00 | 90 | 1012.1 |
| 20260505023603 | 4 | 0 | 0.0 | 3.2 | 0.00 | 0.00 | 0.00 | 91 | 1012.2 |
| 20260505022703 | 4 | 0 | 0.0 | 0.0 | 0.00 | 0.00 | 0.00 | 90 | 1012.1 |
| 20260505021803 | 4 | 0 | 0.0 | 1.6 | 0.00 | 0.00 | 0.00 | 90 | 1012.2 |
| 20260505020903 | 4 | 0 | 0.0 | 3.2 | 0.00 | 0.03 | 0.00 | 90 | 1012.2 |
| 20260505020216 | 4 | 0 | 0.0 | 3.2 | 0.00 | 0.03 | 0.00 | 90 | 1012.4 |
| 20260505015403 | 4 | 0 | 0.0 | 1.6 | 0.00 | 0.03 | 0.00 | 90 | 1012.3 |
| 20260505014719 | 4 | 0 | 0.0 | 0.0 | 0.00 | 0.03 | 0.00 | 90 | 1012.4 |
| 20260505013603 | 4 | 0 | 0.0 | 1.6 | 0.00 | 0.03 | 0.00 | 90 | 1012.4 |
| 20260505012703 | 4 | 0 | 0.0 | 1.6 | 0.00 | 0.03 | 0.00 | 89 | 1012.5 |
| 20260505011803 | 4 | 0 | 0.0 | 1.6 | 0.00 | 0.03 | 0.00 | 89 | 1012.5 |
| 20260505010903 | 4 | 0 | 0.0 | 3.2 | 0.00 | 0.03 | 0.00 | 89 | 1012.7 |
| 20260505010003 | 4 | 0 | 0.0 | 1.6 | 0.00 | 0.03 | 0.00 | 89 | 1012.6 |
| 20260505005403 | 4 | 0 | 0.0 | 3.2 | 0.00 | 0.03 | 0.00 | 89 | 1012.6 |
| 20260505004503 | 5 | 0 | 0.0 | 3.2 | 0.00 | 0.03 | 0.00 | 89 | 1012.7 |
| 20260505003603 | 5 | 280 | 1.6 | 4.8 | 0.00 | 0.05 | 0.00 | 88 | 1012.7 |
| 20260505002703 | 5 | 286 | 1.6 | 6.4 | 0.00 | 0.05 | 0.00 | 88 | 1012.7 |
| 20260505001803 | 5 | 0 | 0.0 | 4.8 | 0.00 | 0.08 | 0.00 | 88 | 1012.8 |
| 20260505000903 | 5 | 0 | 0.0 | 4.8 | 0.00 | 0.15 | 0.00 | 88 | 1012.7 |
| 20260505000003 | 5 | 270 | 1.6 | 4.8 | 0.00 | 0.23 | 0.00 | 87 | 1012.8 |
| 20260504235403 | 5 | 277 | 1.6 | 6.4 | 0.00 | 0.30 | 0.00 | 87 | 1012.8 |
| 20260504234503 | 5 | 283 | 1.6 | 9.7 | 0.00 | 0.41 | 0.00 | 87 | 1012.7 |
| 20260504233603 | 5 | 273 | 1.6 | 9.7 | 0.00 | 0.46 | 0.00 | 87 | 1012.8 |
| 20260504232917 | 5 | 265 | 1.6 | 9.7 | 0.00 | 0.48 | 0.00 | 87 | 1012.8 |
| 20260504231803 | 5 | 275 | 1.6 | 6.4 | 0.00 | 0.48 | 0.00 | 86 | 1012.7 |
| 20260504230903 | 5 | 282 | 1.6 | 6.4 | 0.00 | 0.51 | 0.00 | 86 | 1012.7 |
| 20260504230219 | 5 | 280 | 1.6 | 8.0 | 0.00 | 0.51 | 0.00 | 86 | 1012.7 |
| 20260504225403 | 6 | 277 | 1.6 | 6.4 | 0.00 | 0.51 | 0.00 | 86 | 1012.8 |
| 20260504224503 | 6 | 274 | 1.6 | 6.4 | 0.00 | 0.51 | 0.00 | 86 | 1012.8 |
| 20260504223603 | 6 | 269 | 1.6 | 6.4 | 0.00 | 0.51 | 0.00 | 85 | 1012.8 |
| 20260504222703 | 6 | 263 | 1.6 | 6.4 | 0.00 | 0.51 | 0.00 | 85 | 1012.7 |
| 20260504222016 | 6 | 269 | 1.6 | 6.4 | 0.00 | 0.51 | 0.00 | 85 | 1012.7 |
| 20260504220903 | 6 | 275 | 1.6 | 6.4 | 0.00 | 0.51 | 0.00 | 84 | 1012.7 |
| 20260504220003 | 6 | 277 | 1.6 | 4.8 | 0.00 | 0.53 | 0.00 | 84 | 1012.8 |
| 20260504215618 | 6 | 282 | 1.6 | 6.4 | 0.00 | 0.53 | 0.53 | 84 | 1012.8 |
| 20260504214503 | 6 | 278 | 1.6 | 6.4 | 0.00 | 0.53 | 0.53 | 84 | 1012.9 |
| 20260504213603 | 6 | 0 | 0.0 | 3.2 | 0.00 | 0.56 | 0.53 | 84 | 1012.9 |
| 20260504212916 | 6 | 0 | 0.0 | 1.6 | 0.00 | 0.58 | 0.53 | 84 | 1012.8 |
| 20260504211803 | 6 | 289 | 1.6 | 4.8 | 0.00 | 0.61 | 0.53 | 83 | 1012.8 |
| 20260504210903 | 6 | 290 | 1.6 | 4.8 | 0.00 | 0.64 | 0.53 | 83 | 1012.8 |
| 20260504210003 | 7 | 288 | 1.6 | 6.4 | 0.00 | 0.64 | 0.53 | 83 | 1012.7 |
| 20260504205403 | 7 | 0 | 0.0 | 3.2 | 0.00 | 0.66 | 0.53 | 82 | 1012.8 |
| 20260504204503 | 7 | 290 | 1.6 | 6.4 | 0.00 | 0.69 | 0.53 | 82 | 1012.8 |
| 20260504203816 | 7 | 290 | 1.6 | 6.4 | 0.00 | 0.71 | 0.53 | 81 | 1012.8 |
| 20260504202703 | 7 | 292 | 1.6 | 8.0 | 0.00 | 0.74 | 0.53 | 81 | 1012.9 |
| 20260504201803 | 7 | 293 | 3.2 | 8.0 | 0.00 | 0.79 | 0.53 | 81 | 1012.8 |
| 20260504200903 | 7 | 293 | 1.6 | 6.4 | 0.00 | 0.84 | 0.53 | 81 | 1012.8 |
| 20260504200003 | 7 | 291 | 1.6 | 8.0 | 0.00 | 0.89 | 0.53 | 80 | 1012.8 |
| 20260504195403 | 8 | 296 | 3.2 | 9.7 | 0.00 | 0.91 | 0.53 | 80 | 1012.8 |
| 20260504194503 | 8 | 286 | 1.6 | 8.0 | 0.00 | 0.97 | 0.53 | 80 | 1012.7 |
| 20260504193603 | 8 | 295 | 1.6 | 6.4 | 0.00 | 0.99 | 0.53 | 80 | 1012.7 |
| 20260504192703 | 8 | 305 | 4.8 | 9.7 | 0.00 | 0.99 | 0.53 | 79 | 1012.7 |
| 20260504192019 | 8 | 304 | 3.2 | 9.7 | 0.00 | 0.99 | 0.53 | 79 | 1012.6 |
| 20260504190903 | 8 | 310 | 3.2 | 14.5 | 0.00 | 0.99 | 0.53 | 78 | 1012.5 |
| 20260504190003 | 8 | 309 | 6.4 | 16.1 | 0.00 | 0.99 | 0.53 | 78 | 1012.6 |
| 20260504185617 | 9 | 306 | 6.4 | 16.1 | 0.00 | 0.99 | 0.53 | 77 | 1012.5 |
| 20260504184503 | 9 | 300 | 6.4 | 14.5 | 0.00 | 0.99 | 0.53 | 77 | 1012.5 |
| 20260504183603 | 10 | 300 | 8.0 | 17.7 | 0.00 | 0.99 | 0.53 | 76 | 1012.4 |
| 20260504182703 | 10 | 302 | 4.8 | 16.1 | 0.00 | 1.02 | 0.53 | 76 | 1012.3 |
| 20260504181803 | 10 | 308 | 6.4 | 16.1 | 0.00 | 1.02 | 0.53 | 75 | 1012.2 |
| 20260504180903 | 10 | 311 | 8.0 | 17.7 | 0.00 | 1.02 | 0.53 | 75 | 1012.1 |
| 20260504180003 | 11 | 313 | 8.0 | 17.7 | 0.00 | 1.02 | 0.53 | 74 | 1012.1 |
| 20260504175403 | 11 | 314 | 8.0 | 16.1 | 0.00 | 1.02 | 0.53 | 74 | 1012.0 |
| 20260504174503 | 11 | 305 | 9.7 | 17.7 | 0.00 | 1.04 | 0.53 | 72 | 1012.0 |